Regional Weather Roundup
Issued by NWS

Home | Current Version | Previous Version | Graphics & Text | Print | Product List | Glossary On
Versions: 1 2 3 4 5 6 7 8 9 10 11 12 13 14 15 16 17 18 19 20 21 22 23 24 25 26 27 28 29 30 31 32 33 34 35 36 37 38 39 40 41 42 43 44 45 46 47 48 49 50
000
ASUS43 KLOT 030908
RWRIL

ILLINOIS REGIONAL WEATHER ROUNDUP
NATIONAL WEATHER SERVICE CHICAGO/ROMEOVILLE IL
400 AM CDT FRI JUL 03 2015

NOTE: "FAIR" INDICATES FEW OR NO CLOUDS BELOW 12,000 FEET WITH NO
SIGNIFICANT WEATHER AND/OR OBSTRUCTIONS TO VISIBILITY.

* THESE STATIONS ARE NOT UNDER NWS QUALITY CONTROL. THEY ALSO MAY NOT
  REPORT WEATHER SUCH AS PRECIPITATION OR FOG.

ILZ001-002-007-009-015-016-024-031000-
NORTHWEST ILLINOIS

CITY           SKY/WX    TMP DP  RH WIND       PRES   REMARKS
MOLINE         CLOUDY    61  56  83 NE6       29.96S
STERLING*      CLOUDY    55  54  94 NE6       29.97S
SAVANNA*       MOCLDY    57  54  88 NW3       29.98S
$$

ILZ003-004-008-010-011-017-018-031000-
NORTH CENTRAL ILLINOIS

CITY           SKY/WX    TMP DP  RH WIND       PRES   REMARKS
ROCKFORD       CLOUDY    57  48  72 CALM      29.99S
FREEPORT*      MOCLDY    53  52  97 CALM      30.00F
ROCHELLE*      CLOUDY    55  51  89 CALM      29.98S
DE KALB*       CLOUDY    53  48  82 NE5       29.98S
PERU*          CLOUDY    58  52  81 NE5       29.96F
$$

ILZ005-006-012>014-019>023-031000-
NORTHEAST ILLINOIS

CITY           SKY/WX    TMP DP  RH WIND       PRES   REMARKS
CHICAGO-OHARE  CLOUDY    55  50  83 CALM      29.96F
CHICAGO-MIDWAY CLOUDY    62  54  74 N5        29.95F
AURORA         CLOUDY    56  48  74 NE6       29.97S
LANSING*       CLOUDY    60  56  87 CALM      29.95F
JOLIET*        CLOUDY    60  53  78 NE5       29.95F
WAUKEGAN       MOCLDY    52  50  93 CALM      29.97S
DUPAGE AIRPORT MOCLDY    55  49  80 N5        29.96S
KANKAKEE*      CLOUDY    59  57  94 NE5       29.94F
WHEELING       MOCLDY    55  49  80 CALM      29.98F
MORRIS*        CLOUDY    57  52  84 CALM      29.94S
ROMEOVILLE*    CLOUDY    57  51  79 NE5       29.96F
NORTHERLY ISL    N/A     62  56  80 E6          N/A
$$

LMZ740>746-031000-
SOUTHERN LAKE MICHIGAN

STATION/POSITION SKY/WX   TEMP    WIND        PRES    VSBY  WAVE
                          AIR SEA DIR/SP/G                  HT/PER
                          (F)     (DEG/KT/KT) (MB)    (MI)  (FT/S)
HARRISON CRIB              60      70/  4/  5   N/A
BURNHAM HARBOR             62     110/  4/  6   N/A
CALUMET HARBOR             62      50/  4/  5   N/A
BURNS HARBOR               60      70/  7/  8 1015.2F
MICHIGAN CITY              58      60/  8/  9   N/A
MICHIGAN CITY 6N           60 62  100/  6/  8   N/A           2/ 4
ST. JOSEPH                 60 61                N/A           2/ 4
$$

ILZ025>027-034>036-040-047-049-050-058-095>099-031000-
WEST-CENTRAL ILLINOIS

CITY           SKY/WX    TMP DP  RH WIND       PRES   REMARKS
QUINCY         CLOUDY    64  60  87 NE7       29.91F
GALESBURG*     CLOUDY    60  57  88 NE5       29.95S
MACOMB*        CLOUDY    61  60  95 N5        29.95F
JACKSONVILLE*  MOCLDY    65  61  89 N6        29.90F
PITTSFIELD*    MOCLDY    64  61  88 NE3       29.92F
$$

ILZ028>032-037-038-041>044-048-051>054-059>061-031000-
CENTRAL ILLINOIS

CITY           SKY/WX    TMP DP  RH WIND       PRES   REMARKS
PONTIAC        CLOUDY    60  57  89 NE8       29.94F
BLOOMINGTON    CLOUDY    60  58  93 NE8       29.93F
DECATUR        CLOUDY    63  59  87 N8        29.90S
PEORIA         CLOUDY    64  56  75 NE9       29.94S
LACON*         CLOUDY    58  53  81 CALM      29.94F
LINCOLN*       CLOUDY    63  58  86 N3        29.92F
SPRINGFIELD    CLOUDY    65  60  84 N7        29.91F
TAYLORVILLE    MOCLDY    61  61 100 N6        29.90S
$$

ILZ033-039-045-046-055>057-062-063-031000-
EAST-CENTRAL ILLINOIS

CITY           SKY/WX    TMP DP  RH WIND       PRES   REMARKS
CHAMPAIGN      CLOUDY    64  59  83 NE10      29.89F
DANVILLE*      CLOUDY    62  60  91 NE7       29.88S
RANTOUL*       CLOUDY    64  60  87 NE9       29.90F
MATTOON        CLOUDY    65  62  90 N6        29.87S
PARIS*         CLOUDY    65  63  91 NE6       29.88S
$$

ILZ079-100>102-031000-
SOUTHWEST ILLINOIS

CITY           SKY/WX    TMP DP  RH WIND       PRES   REMARKS
ALTON          CLOUDY    65  65 100 N3        29.89S
BELLEVILLE     MOCLDY    67  66  96 VRB5      29.86S
CAHOKIA*       CLOUDY    69  62  78 N5        29.88F
SPARTA*        MOCLDY    67  64  89 NW5       29.88S
$$

ILZ064>066-069>071-074>076-080>082-084>086-088>090-092>094-031000-
SOUTH-CENTRAL ILLINOIS

CITY           SKY/WX    TMP DP  RH WIND       PRES   REMARKS
CARBONDALE     MOCLDY    69  65  86 NW5       29.85F
CAIRO*         LGT RAIN  71  70  96 N5        29.83F
EFFINGHAM*     CLOUDY    68  63  84 NW3       29.88S
MARION         CLOUDY    70  68  94 CALM      29.85S
MT. VERNON     CLOUDY    68  63  83 CALM      29.86S
CENTRALIA*     MOCLDY    67  63  89 N3        29.87S
SALEM*         CLOUDY    69  65  89 CALM      29.87R
METROPOLIS*    CLOUDY    72  72 100 SW3       29.85R
$$

ILZ067-068-072-073-078-083-087-091-031000-
SOUTHEAST ILLINOIS

CITY           SKY/WX    TMP DP  RH WIND       PRES   REMARKS
LAWRENCEVILLE  CLOUDY    71  68  90 NE6       29.85R FOG
FLORA*         PTCLDY    68  66  93 N3        29.86R FOG
FAIRFIELD*     MOCLDY    69  67  95 N7        29.83F
HARRISBURG*    MOCLDY    71  70  99 NW3       29.85S FOG
ROBINSON*      CLOUDY    69  66  91 NE3       29.86S
CARMI*         CLOUDY    71  65  82 NW5       29.83S
$$

ABBREVIATIONS USED IN REMARKS
   TC - TEMPERATURE IN CELSIUS
  WCI - WIND CHILL INDEX
   HX - HEAT INDEX
  VSB - VISIBILITY
$$




USA.gov is the U.S. government's official web portal to all federal, state and local government web resources and services.